Find Starlink 31812

NORAD ID: 59800 Int'l Des: 2024-093 Owner: SPXS Country: US Constellation: starlink operational
LEOCIRCULAR

現在のビュー

3D地球を読み込み中...

About Starlink 31812

Starlink 31812 (NORAD 59800) is a starlink constellation satellite (v2 mini) launched May 18, 2024 by SPXS of US. It operates in LEO, CIRCULAR orbit with a mass of 730.00 kg.

次回通過

Passes for default location (London). Set your location on the main map for personalized predictions.

高度履歴

Loading altitude history...

軌道要素

1 59800U 24093U 26237.64341875 .00003366 00000-0 13185-3 0 9997
2 59800 43.0036 334.8244 0001650 280.0607 80.0058 15.27562814128602
Epoch: Aug 25, 2026 • Age: 16 hours

現在のステータス

高度 485.3 km
遠地点 / 近地点 N/A
速度 7.63 km/s
衛星直下点 33.23°N, 16.8°E
打ち上げ日 May 18, 2024
運用期間 2.2 years
タイプ internet

技術仕様

分類 Payload
質量 730.00 kg
乾燥質量 700.00 kg
総質量 730.00 kg
長さ 0.30 m
直径 4.10 m
スパン 29.00 m
形状 Box + pan
製造者 SPXS
バスタイプ Starlink V2M
フェーズステータス In Orbit
所有者/国 SPXS/US

Most Searched